Delta, CO

12:53 AM MST on February 22, 2017 (GMT -0700)
Delta

Weather History for KAJZ - July, 2014

Change the Weather History Date:

Wednesday, July 9, 2014

  Actual Average (KMTJ) Record (KMTJ)
Temperature  
Mean Temperature 80 °F -  
Max Temperature 93 °F 88 °F 99 °F (2002)
Min Temperature 66 °F 55 °F 48 °F (1997)
Cooling Degree Days 14    
Growing Degree Days 30 (Base 50)    
Moisture  
Dew Point 45 °F    
Average Humidity 30    
Maximum Humidity 49    
Minimum Humidity 18    
Precipitation  
Precipitation 0.00 in - - ()
Sea Level Pressure  
Sea Level Pressure 30.14 in    
Wind  
Wind Speed 5 mph (South)    
Max Wind Speed 16 mph    
Max Gust Speed 22 mph    
Visibility 9 miles    
Events      
Averages and records for this station are not official NWS values.
T = Trace of Precipitation, MM = Missing Value Source: NWS Daily Summary

Daily Weather History Graph

Daily Weather History Graph

Search for Another Location

Airport or City:

Trip Planner

Search our weather history database for the weather conditions in past years. The results will help you decide how hot, cold, wet, or windy it might be!

Date:

Astronomy

Jul. 09, 2014 Rise Set
Actual Time 5:55 AM MDT 8:39 PM MDT
Civil Twilight 5:23 AM MDT 9:10 PM MDT
Nautical Twilight 4:44 AM MDT 9:49 PM MDT
Astronomical Twilight 3:59 AM MDT 10:34 PM MDT
Moon 5:54 PM MDT (7/9) 3:15 AM MDT (7/9)
Length of Visible Light 15h 46m
Length of Day
14h 43m
Waxing Gibbous, 90% of the Moon is Illuminated
Jul 9
Waxing Gibbous
Jul 12
Full
Jul 18
Last Quarter
Jul 26
New
Aug 3
First Quarter

Hourly Weather History & Observations

Time (MDT) Temp. Dew Point Humidity Pressure Visibility Wind Dir Wind Speed Gust Speed Precip Events Conditions
12:15 AM 77.0 °F 43.5 °F 30% 30.17 in 7.0 mi North 8.1 mph - N/A   Clear
12:35 AM 77.4 °F 43.9 °F 30% 30.17 in 10.0 mi North 9.2 mph - N/A   Clear
12:55 AM 76.5 °F 45.1 °F 33% 30.18 in 10.0 mi North 10.4 mph - N/A   Clear
1:15 AM 74.8 °F 44.6 °F 34% 30.19 in 10.0 mi NNE 6.9 mph - N/A   Clear
1:35 AM 73.4 °F 44.6 °F 36% 30.19 in 10.0 mi Calm Calm - N/A   Clear
1:55 AM 74.1 °F 43.5 °F 33% 30.19 in 10.0 mi NNE 4.6 mph - N/A   Clear
2:15 AM 72.0 °F 44.6 °F 37% 30.19 in 10.0 mi Calm Calm - N/A   Clear
2:35 AM 75.7 °F 42.8 °F 31% 30.20 in 10.0 mi Calm Calm - N/A   Clear
2:55 AM 76.8 °F 46.0 °F 34% 30.19 in 10.0 mi WSW 9.2 mph - N/A   Clear
3:15 AM 77.5 °F 46.0 °F 33% 30.19 in 7.0 mi West 10.4 mph - N/A   Clear
3:35 AM 77.0 °F 46.0 °F 33% 30.19 in 10.0 mi WSW 8.1 mph - N/A   Clear
3:55 AM 70.7 °F 47.5 °F 44% 30.19 in 10.0 mi SW 4.6 mph - N/A   Clear
4:15 AM 68.2 °F 46.9 °F 47% 30.19 in 10.0 mi Calm Calm - N/A   Clear
4:35 AM 66.7 °F 46.9 °F 49% 30.19 in 10.0 mi Calm Calm - N/A   Clear
4:55 AM 67.5 °F 46.0 °F 46% 30.20 in 10.0 mi East 6.9 mph - N/A   Clear
5:15 AM 68.2 °F 45.5 °F 44% 30.20 in 7.0 mi ENE 4.6 mph - N/A   Clear
5:35 AM 68.0 °F 45.1 °F 44% 30.20 in 7.0 mi ENE 5.8 mph - N/A   Clear
5:55 AM 68.5 °F 45.1 °F 43% 30.21 in 7.0 mi ENE 5.8 mph - N/A   Clear
6:15 AM 68.0 °F 45.1 °F 44% 30.21 in 7.0 mi Calm Calm - N/A   Clear
6:35 AM 68.0 °F 45.7 °F 45% 30.22 in 7.0 mi Calm Calm - N/A   Clear
6:55 AM 69.6 °F 45.5 °F 42% 30.23 in 7.0 mi East 3.5 mph - N/A   Clear
7:15 AM 70.5 °F 45.9 °F 41% 30.23 in 10.0 mi East 5.8 mph - N/A   Clear
7:35 AM 71.6 °F 45.9 °F 40% 30.23 in 7.0 mi ENE 6.9 mph - N/A   Clear
7:55 AM 71.2 °F 46.0 °F 40% 30.23 in 10.0 mi ENE 5.8 mph - N/A   Clear
8:15 AM 72.0 °F 46.4 °F 40% 30.23 in 10.0 mi Calm Calm - N/A   Clear
8:35 AM 72.7 °F 46.0 °F 39% 30.23 in 7.0 mi Calm Calm - N/A   Clear
8:55 AM 74.5 °F 45.5 °F 36% 30.23 in 10.0 mi Calm Calm - N/A   Clear
9:15 AM 76.5 °F 44.6 °F 32% 30.23 in 10.0 mi Calm Calm - N/A   Clear
9:35 AM 78.1 °F 44.8 °F 31% 30.23 in 10.0 mi ESE 3.5 mph - N/A   Clear
9:55 AM 79.7 °F 45.7 °F 30% 30.22 in 10.0 mi South 3.5 mph - N/A   Clear
10:15 AM 81.1 °F 46.4 °F 29% 30.21 in 10.0 mi SE 4.6 mph - N/A   Clear
10:35 AM 82.0 °F 45.5 °F 28% 30.21 in 10.0 mi Calm Calm - N/A   Clear
10:55 AM 82.9 °F 45.5 °F 27% 30.21 in 10.0 mi Calm Calm - N/A   Clear
11:15 AM 84.2 °F 45.3 °F 26% 30.19 in 7.0 mi South 5.8 mph - N/A   Clear
11:35 AM 85.6 °F 43.9 °F 23% 30.18 in 10.0 mi Calm Calm - N/A   Clear
11:55 AM 86.7 °F 44.1 °F 22% 30.17 in 10.0 mi ESE 5.8 mph - N/A   Clear
12:15 PM 87.1 °F 45.9 °F 24% 30.16 in 10.0 mi South 3.5 mph - N/A   Clear
12:35 PM 88.2 °F 46.0 °F 23% 30.15 in 10.0 mi SSE 5.8 mph - N/A   Clear
12:55 PM 89.4 °F 44.6 °F 21% 30.14 in 10.0 mi SSW 5.8 mph - N/A   Clear
1:15 PM 90.3 °F 42.8 °F 19% 30.13 in 10.0 mi South 5.8 mph - N/A   Clear
1:35 PM 91.0 °F 43.5 °F 19% 30.11 in 10.0 mi South 4.6 mph - N/A   Clear
1:55 PM 91.8 °F 43.5 °F 19% 30.10 in 10.0 mi South 5.8 mph - N/A   Clear
2:15 PM 92.5 °F 43.0 °F 18% 30.09 in 10.0 mi SSE 4.6 mph - N/A   Clear
2:35 PM 92.5 °F 43.2 °F 18% 30.08 in 10.0 mi South 11.5 mph - N/A   Clear
2:55 PM 91.4 °F 43.9 °F 19% 30.07 in 10.0 mi South 6.9 mph - N/A   Clear
3:15 PM 90.9 °F 43.2 °F 19% 30.07 in 10.0 mi SW 6.9 mph - N/A   Clear
3:35 PM 90.9 °F 43.5 °F 19% 30.06 in 10.0 mi SW 9.2 mph - N/A   Clear
3:55 PM 90.9 °F 44.4 °F 20% 30.05 in 10.0 mi West 16.1 mph 21.9 mph N/A   Clear
4:15 PM 90.3 °F 44.1 °F 20% 30.05 in 10.0 mi WSW 11.5 mph - N/A   Clear
4:35 PM 90.7 °F 43.7 °F 20% 30.04 in 10.0 mi West 10.4 mph - N/A   Clear
4:55 PM 92.5 °F 43.2 °F 18% 30.03 in 10.0 mi WSW 9.2 mph - N/A   Clear
5:15 PM 93.0 °F 43.2 °F 18% 30.02 in 7.0 mi SSW 10.4 mph - N/A   Clear
5:35 PM 91.6 °F 42.3 °F 18% 30.02 in 10.0 mi South 8.1 mph - N/A   Clear
5:55 PM 92.3 °F 44.1 °F 19% 30.02 in 10.0 mi SW 9.2 mph - N/A   Clear
6:15 PM 92.3 °F 43.5 °F 18% 30.02 in 10.0 mi SSW 10.4 mph - N/A   Clear
6:35 PM 91.4 °F 43.9 °F 19% 30.02 in 10.0 mi SSW 6.9 mph - N/A   Clear
6:55 PM 89.8 °F 40.8 °F 18% 30.04 in 10.0 mi NE 3.5 mph - N/A   Clear
7:15 PM 85.3 °F 46.6 °F 26% 30.06 in 10.0 mi SW 12.7 mph 18.4 mph N/A   Clear
7:35 PM 84.4 °F 46.0 °F 26% 30.07 in 10.0 mi WSW 8.1 mph 18.4 mph N/A   Clear
7:55 PM 84.9 °F 45.5 °F 25% 30.08 in 10.0 mi West 6.9 mph - N/A   Clear
8:15 PM 84.6 °F 44.6 °F 25% 30.08 in 10.0 mi NW 8.1 mph - N/A   Clear
8:35 PM 84.7 °F 43.5 °F 23% 30.08 in 10.0 mi South 4.6 mph - N/A   Scattered Clouds
8:55 PM 81.5 °F 45.5 °F 28% 30.08 in 10.0 mi Calm Calm - N/A   Scattered Clouds
9:15 PM 81.1 °F 45.0 °F 28% 30.09 in 10.0 mi Calm Calm - N/A   Clear
9:35 PM 79.7 °F 44.8 °F 29% 30.10 in 10.0 mi Calm Calm - N/A   Clear
9:55 PM 79.2 °F 44.4 °F 29% 30.11 in 10.0 mi Calm Calm - N/A   Clear
10:15 PM 79.3 °F 43.3 °F 28% 30.12 in 10.0 mi Calm Calm - N/A   Clear
10:35 PM 75.4 °F 47.7 °F 37% 30.12 in 10.0 mi NNE 6.9 mph - N/A   Clear
10:55 PM 73.4 °F 49.3 °F 42% 30.12 in 10.0 mi North 5.8 mph - N/A   Clear
11:15 PM 73.2 °F 48.2 °F 41% 30.11 in 7.0 mi NNE 4.6 mph - N/A   Clear
11:35 PM 73.4 °F 48.0 °F 41% 30.11 in 10.0 mi NNE 6.9 mph - N/A   Clear
11:55 PM 73.4 °F 47.3 °F 39% 30.12 in 7.0 mi Calm Calm - N/A   Clear